Weather in Caorle

Italy     45°36′15″N   12°52′24″E
temp.,
°C
wind,
m/s
gust,
m/s
humid.,
%
clouds,
%
prec.,
mm/h
press.,
hPa
HPBL,
m
12 april, mon
mon1223:00+12wsw0294100 0.3 1019124
02:00+12ssw0194100 0.4 101970
05:00+12sse1295100 1.3 1018129
08:00+12sse7995100 1.7 1017346
11:00+12sse71096100 6.4 1016411
14:00+12s71095100 13.5 1016423
17:00+13sse71091100 2.4 1014299
20:00+12sse4596100 4.6 1014268
13 april, tue
tue1323:00+8nne111397100 17.9 1015463
02:00+7nne131789100 31.8 1016677
05:00+6nne121692100 7.9 1017952
08:00+5nne101293100 13.3 1020735
11:00+5nne7895100 2.9 1022620
14:00+7n4674100 3.4 1022813
17:00+8nw1271100 0.3 1022668
20:00+7s1175100 0.6 1023271
14 april, wed
wed1423:00+8wnw4476100 0.0 1024559
02:00+7wnw5684100 0.0 1024339
05:00+6nw458712 0.2 1024247
08:00+6n44895 0.2 1024210
11:00+8n227668 0.3 1025330
14:00+10s226141 1.7 1024404
17:00+10sw44659 0.1 1022564
20:00+10s446172 0.1 1022771
15 april, thu
thu1523:00+10sse2253100 0.0 1023579
02:00+10ene2254100 0.1 1023580
05:00+8ne437699 0.8 1023568
08:00+7nne658197 1.1 1024462
11:00+8nne447296 0.0 1024553
14:00+10ene11527 0.1 1023935
17:00+10ssw32535 0.0 1021363
20:00+10wsw33495 0.0 1021305
16 april, fri
fri1623:00+10w22495 0.0 1022273
02:00+8n44705 0.0 1021183
05:00+8nne44805 0.0 1020219
08:00+8ne44750 0.0 1020349
11:00+9ne44660 0.0 1020439
14:00+10se32601 0.0 1019368
17:00+10sw11591 0.0 1018172
20:00+12wsw3361100 0.0 1017137